{"data":{"norad_id":68857,"intl_designator":"2026-094U","name":"STARLINK-37468","alt_names":[],"object_type":"PAYLOAD","status":"ACTIVE","operator":null,"country":"US","launch_date":"2026-04-26","launch_site_code":"AFWTR","launch_vehicle":null,"mission":null,"orbit_class":"UNKNOWN","rcs_meters":null,"size_class":null,"mass_kg":null,"dimensions":null,"purposes":["comms"],"wikipedia_slug":null,"has_3d_model":false,"image_url":null,"decayed_at":null,"tle_current":{"epoch":"2026-09-19T23:59:52.685376Z","epoch_age_seconds":58762,"freshness":"FRESH","line1":"1 68857U 26094U   26262.99991534  .00019558  00000+0  60649-3 0  9997","line2":"2 68857  97.2844 276.1714 0001271  88.4789 271.6599 15.33448413 22585","mean_motion":15.33448413,"eccentricity":0.0001271,"inclination_deg":97.2844,"raan_deg":276.1714,"arg_perigee_deg":88.4789,"mean_anomaly_deg":271.6599,"bstar":0.00060649,"rev_number":2258,"period_min":93.905995649558,"perigee_km":464.6631893507,"apogee_km":466.40285026973,"semimajor_km":6843.6700198102,"source":"CELESTRAK","updated_at":"2026-09-20T09:00:44.044051Z"}}}